owner,sensor,date,latitude,longitude,vertical_datum,wind_speed,wind_to_direction,wind_speed_of_gust,qcFlag 
LUMCON,ioos:station:LUMCON:101:1,2017-02-01T00:00:00Z,29.2533,-90.6633,1.0,3.2,143.0,-9999.0,'1111122,1111122,1111122' 
LUMCON,ioos:station:LUMCON:101:1,2017-02-01T00:15:00Z,29.2533,-90.6633,1.0,3.0,140.0,-9999.0,'1111122,1111122,1111122' 
LUMCON,ioos:station:LUMCON:101:1,2017-02-01T00:30:00Z,29.2533,-90.6633,1.0,3.3,164.0,-9999.0,'1111122,1111122,1111122' 
LUMCON,ioos:station:LUMCON:101:1,2017-02-01T00:45:00Z,29.2533,-90.6633,1.0,3.5,144.0,-9999.0,'1111122,1111122,1111122' 
LUMCON,ioos:station:LUMCON:101:1,2017-02-01T01:00:00Z,29.2533,-90.6633,1.0,3.8,143.0,-9999.0,'1111122,1111122,1111122' 
LUMCON,ioos:station:LUMCON:101:1,2017-02-01T01:15:00Z,29.2533,-90.6633,1.0,3.3,147.0,-9999.0,'1111122,1111122,1111122' 
LUMCON,ioos:station:LUMCON:101:1,2017-02-01T01:30:00Z,29.2533,-90.6633,1.0,3.6,155.0,-9999.0,'1111122,1111122,1111122' 
LUMCON,ioos:station:LUMCON:101:1,2017-02-01T01:45:00Z,29.2533,-90.6633,1.0,3.3,145.0,-9999.0,'1111122,1111122,1111122' 
LUMCON,ioos:station:LUMCON:101:1,2017-02-01T02:00:00Z,29.2533,-90.6633,1.0,3.3,138.0,-9999.0,'1111122,1111122,1111122' 
LUMCON,ioos:station:LUMCON:101:1,2017-02-01T02:15:00Z,29.2533,-90.6633,1.0,3.3,145.0,-9999.0,'1111122,1111122,1111122' 
LUMCON,ioos:station:LUMCON:101:1,2017-02-01T02:30:00Z,29.2533,-90.6633,1.0,4.3,134.0,-9999.0,'1111122,1111122,1111122' 
LUMCON,ioos:station:LUMCON:101:1,2017-02-01T02:45:00Z,29.2533,-90.6633,1.0,3.2,143.0,-9999.0,'1111122,1111122,1111122' 
LUMCON,ioos:station:LUMCON:101:1,2017-02-01T03:00:00Z,29.2533,-90.6633,1.0,3.6,139.0,-9999.0,'1111122,1111122,1111122' 
LUMCON,ioos:station:LUMCON:101:1,2017-02-01T03:15:00Z,29.2533,-90.6633,1.0,4.4,133.0,-9999.0,'1111122,1111122,1111122' 
LUMCON,ioos:station:LUMCON:101:1,2017-02-01T03:30:00Z,29.2533,-90.6633,1.0,3.9,140.0,-9999.0,'1111122,1111122,1111122' 
LUMCON,ioos:station:LUMCON:101:1,2017-02-01T03:45:00Z,29.2533,-90.6633,1.0,3.8,146.0,-9999.0,'1111122,1111122,1111122' 
LUMCON,ioos:station:LUMCON:101:1,2017-02-01T04:00:00Z,29.2533,-90.6633,1.0,3.5,137.0,-9999.0,'1111122,1111122,1111122' 
LUMCON,ioos:station:LUMCON:101:1,2017-02-01T04:15:00Z,29.2533,-90.6633,1.0,3.8,134.0,-9999.0,'1111122,1111122,1111122' 
LUMCON,ioos:station:LUMCON:101:1,2017-02-01T04:30:00Z,29.2533,-90.6633,1.0,3.0,144.0,-9999.0,'1111122,1111122,1111122' 
LUMCON,ioos:station:LUMCON:101:1,2017-02-01T04:45:00Z,29.2533,-90.6633,1.0,2.4,138.0,-9999.0,'1111122,1111122,1111122' 
LUMCON,ioos:station:LUMCON:101:1,2017-02-01T05:00:00Z,29.2533,-90.6633,1.0,2.6,140.0,-9999.0,'1111122,1111122,1111122' 
LUMCON,ioos:station:LUMCON:101:1,2017-02-01T05:15:00Z,29.2533,-90.6633,1.0,3.1,139.0,-9999.0,'1111122,1111122,1111122' 
LUMCON,ioos:station:LUMCON:101:1,2017-02-01T05:30:00Z,29.2533,-90.6633,1.0,3.8,150.0,-9999.0,'1111122,1111122,1111122' 
LUMCON,ioos:station:LUMCON:101:1,2017-02-01T05:45:00Z,29.2533,-90.6633,1.0,4.0,154.0,-9999.0,'1111122,1111122,1111122' 
LUMCON,ioos:station:LUMCON:101:1,2017-02-01T06:00:00Z,29.2533,-90.6633,1.0,2.4,153.0,-9999.0,'1111122,1111122,1111122' 
LUMCON,ioos:station:LUMCON:101:1,2017-02-01T06:15:00Z,29.2533,-90.6633,1.0,4.0,149.0,-9999.0,'1111122,1111122,1111122' 
LUMCON,ioos:station:LUMCON:101:1,2017-02-01T06:30:00Z,29.2533,-90.6633,1.0,3.0,153.0,-9999.0,'1111122,1111122,1111122' 
LUMCON,ioos:station:LUMCON:101:1,2017-02-01T06:45:00Z,29.2533,-90.6633,1.0,3.7,144.0,-9999.0,'1111122,1111122,1111122' 
LUMCON,ioos:station:LUMCON:101:1,2017-02-01T07:00:00Z,29.2533,-90.6633,1.0,3.3,151.0,-9999.0,'1111122,1111122,1111122' 
LUMCON,ioos:station:LUMCON:101:1,2017-02-01T07:15:00Z,29.2533,-90.6633,1.0,2.4,154.0,-9999.0,'1111122,1111122,1111122' 
LUMCON,ioos:station:LUMCON:101:1,2017-02-01T07:30:00Z,29.2533,-90.6633,1.0,2.8,159.0,-9999.0,'1111122,1111122,1111122' 
LUMCON,ioos:station:LUMCON:101:1,2017-02-01T07:45:00Z,29.2533,-90.6633,1.0,2.5,151.0,-9999.0,'1111122,1111122,1111122' 
LUMCON,ioos:station:LUMCON:101:1,2017-02-01T08:00:00Z,29.2533,-90.6633,1.0,2.9,165.0,-9999.0,'1111122,1111122,1111122' 
LUMCON,ioos:station:LUMCON:101:1,2017-02-01T08:15:00Z,29.2533,-90.6633,1.0,3.3,156.0,-9999.0,'1111122,1111122,1111122' 
LUMCON,ioos:station:LUMCON:101:1,2017-02-01T08:30:00Z,29.2533,-90.6633,1.0,3.5,150.0,-9999.0,'1111122,1111122,1111122' 
LUMCON,ioos:station:LUMCON:101:1,2017-02-01T08:45:00Z,29.2533,-90.6633,1.0,3.2,155.0,-9999.0,'1111122,1111122,1111122' 
LUMCON,ioos:station:LUMCON:101:1,2017-02-01T09:00:00Z,29.2533,-90.6633,1.0,2.4,149.0,-9999.0,'1111122,1111122,1111122' 
LUMCON,ioos:station:LUMCON:101:1,2017-02-01T09:15:00Z,29.2533,-90.6633,1.0,2.9,164.0,-9999.0,'1111122,1111122,1111122' 
LUMCON,ioos:station:LUMCON:101:1,2017-02-01T09:30:00Z,29.2533,-90.6633,1.0,3.8,147.0,-9999.0,'1111122,1111122,1111122' 
LUMCON,ioos:station:LUMCON:101:1,2017-02-01T09:45:00Z,29.2533,-90.6633,1.0,4.4,150.0,-9999.0,'1111122,1111122,1111122' 
LUMCON,ioos:station:LUMCON:101:1,2017-02-01T10:00:00Z,29.2533,-90.6633,1.0,3.1,148.0,-9999.0,'1111122,1111122,1111122' 
LUMCON,ioos:station:LUMCON:101:1,2017-02-01T10:15:00Z,29.2533,-90.6633,1.0,3.3,161.0,-9999.0,'1111122,1111122,1111122' 
LUMCON,ioos:station:LUMCON:101:1,2017-02-01T10:30:00Z,29.2533,-90.6633,1.0,3.1,146.0,-9999.0,'1111122,1111122,1111122' 
LUMCON,ioos:station:LUMCON:101:1,2017-02-01T10:45:00Z,29.2533,-90.6633,1.0,3.0,143.0,-9999.0,'1111122,1111122,1111122' 
LUMCON,ioos:station:LUMCON:101:1,2017-02-01T11:00:00Z,29.2533,-90.6633,1.0,3.0,143.0,-9999.0,'1111122,1111122,1111122' 
LUMCON,ioos:station:LUMCON:101:1,2017-02-01T11:15:00Z,29.2533,-90.6633,1.0,3.0,142.0,-9999.0,'1111122,1111122,1111122' 
LUMCON,ioos:station:LUMCON:101:1,2017-02-01T11:30:00Z,29.2533,-90.6633,1.0,3.2,142.0,-9999.0,'1111122,1111122,1111122' 
LUMCON,ioos:station:LUMCON:101:1,2017-02-01T11:45:00Z,29.2533,-90.6633,1.0,2.6,144.0,-9999.0,'1111122,1111122,1111122' 
LUMCON,ioos:station:LUMCON:101:1,2017-02-01T12:00:00Z,29.2533,-90.6633,1.0,2.8,136.0,-9999.0,'1111122,1111122,1111122' 
LUMCON,ioos:station:LUMCON:101:1,2017-02-01T12:15:00Z,29.2533,-90.6633,1.0,2.9,145.0,-9999.0,'1111122,1111122,1111122' 
LUMCON,ioos:station:LUMCON:101:1,2017-02-01T12:30:00Z,29.2533,-90.6633,1.0,3.3,133.0,-9999.0,'1111122,1111122,1111122' 
LUMCON,ioos:station:LUMCON:101:1,2017-02-01T12:45:00Z,29.2533,-90.6633,1.0,3.2,140.0,-9999.0,'1111122,1111122,1111122' 
LUMCON,ioos:station:LUMCON:101:1,2017-02-01T13:00:00Z,29.2533,-90.6633,1.0,2.8,134.0,-9999.0,'1111122,1111122,1111122' 
LUMCON,ioos:station:LUMCON:101:1,2017-02-01T13:15:00Z,29.2533,-90.6633,1.0,3.8,148.0,-9999.0,'1111122,1111122,1111122' 
LUMCON,ioos:station:LUMCON:101:1,2017-02-01T13:30:00Z,29.2533,-90.6633,1.0,3.2,153.0,-9999.0,'1111122,1111122,1111122' 
LUMCON,ioos:station:LUMCON:101:1,2017-02-01T13:45:00Z,29.2533,-90.6633,1.0,3.8,125.0,-9999.0,'1111122,1111122,1111122' 
LUMCON,ioos:station:LUMCON:101:1,2017-02-01T14:00:00Z,29.2533,-90.6633,1.0,3.4,136.0,-9999.0,'1111122,1111122,1111122' 
LUMCON,ioos:station:LUMCON:101:1,2017-02-01T14:15:00Z,29.2533,-90.6633,1.0,4.4,142.0,-9999.0,'1111122,1111122,1111122' 
LUMCON,ioos:station:LUMCON:101:1,2017-02-01T14:30:00Z,29.2533,-90.6633,1.0,3.8,148.0,-9999.0,'1111122,1111122,1111122' 
LUMCON,ioos:station:LUMCON:101:1,2017-02-01T14:45:00Z,29.2533,-90.6633,1.0,3.8,133.0,-9999.0,'1111122,1111122,1111122' 
LUMCON,ioos:station:LUMCON:101:1,2017-02-01T15:00:00Z,29.2533,-90.6633,1.0,3.8,128.0,-9999.0,'1111122,1111122,1111122' 
LUMCON,ioos:station:LUMCON:101:1,2017-02-01T15:15:00Z,29.2533,-90.6633,1.0,6.9,158.0,-9999.0,'1111122,1111122,1111122' 
LUMCON,ioos:station:LUMCON:101:1,2017-02-01T15:30:00Z,29.2533,-90.6633,1.0,3.8,150.0,-9999.0,'1111122,1111122,1111122' 
LUMCON,ioos:station:LUMCON:101:1,2017-02-01T15:45:00Z,29.2533,-90.6633,1.0,3.0,179.0,-9999.0,'1111122,1111122,1111122' 
LUMCON,ioos:station:LUMCON:101:1,2017-02-01T16:00:00Z,29.2533,-90.6633,1.0,4.7,173.0,-9999.0,'1111122,1111122,1111122' 
LUMCON,ioos:station:LUMCON:101:1,2017-02-01T16:15:00Z,29.2533,-90.6633,1.0,6.3,163.0,-9999.0,'1111122,1111122,1111122' 
LUMCON,ioos:station:LUMCON:101:1,2017-02-01T16:30:00Z,29.2533,-90.6633,1.0,6.8,168.0,-9999.0,'1111122,1111122,1111122' 
LUMCON,ioos:station:LUMCON:101:1,2017-02-01T16:45:00Z,29.2533,-90.6633,1.0,7.2,168.0,-9999.0,'1111122,1111122,1111122' 
LUMCON,ioos:station:LUMCON:101:1,2017-02-01T17:00:00Z,29.2533,-90.6633,1.0,5.6,162.0,-9999.0,'1111122,1111122,1111122' 
LUMCON,ioos:station:LUMCON:101:1,2017-02-01T17:15:00Z,29.2533,-90.6633,1.0,6.4,172.0,-9999.0,'1111122,1111122,1111122' 
LUMCON,ioos:station:LUMCON:101:1,2017-02-01T17:30:00Z,29.2533,-90.6633,1.0,4.9,166.0,-9999.0,'1111122,1111122,1111122' 
LUMCON,ioos:station:LUMCON:101:1,2017-02-01T17:45:00Z,29.2533,-90.6633,1.0,5.7,166.0,-9999.0,'1111122,1111122,1111122' 
LUMCON,ioos:station:LUMCON:101:1,2017-02-01T18:00:00Z,29.2533,-90.6633,1.0,3.6,162.0,-9999.0,'1111122,1111122,1111122' 
LUMCON,ioos:station:LUMCON:101:1,2017-02-01T18:15:00Z,29.2533,-90.6633,1.0,3.9,159.0,-9999.0,'1111122,1111122,1111122' 
LUMCON,ioos:station:LUMCON:101:1,2017-02-01T18:30:00Z,29.2533,-90.6633,1.0,4.8,160.0,-9999.0,'1111122,1111122,1111122' 
LUMCON,ioos:station:LUMCON:101:1,2017-02-01T18:45:00Z,29.2533,-90.6633,1.0,6.8,182.0,-9999.0,'1111122,1111122,1111122' 
LUMCON,ioos:station:LUMCON:101:1,2017-02-01T19:00:00Z,29.2533,-90.6633,1.0,6.8,158.0,-9999.0,'1111122,1111122,1111122' 
LUMCON,ioos:station:LUMCON:101:1,2017-02-01T19:15:00Z,29.2533,-90.6633,1.0,4.9,170.0,-9999.0,'1111122,1111122,1111122' 
LUMCON,ioos:station:LUMCON:101:1,2017-02-01T19:30:00Z,29.2533,-90.6633,1.0,7.0,172.0,-9999.0,'1111122,1111122,1111122' 
LUMCON,ioos:station:LUMCON:101:1,2017-02-01T19:45:00Z,29.2533,-90.6633,1.0,4.7,172.0,-9999.0,'1111122,1111122,1111122' 
LUMCON,ioos:station:LUMCON:101:1,2017-02-01T20:00:00Z,29.2533,-90.6633,1.0,5.3,175.0,-9999.0,'1111122,1111122,1111122' 
LUMCON,ioos:station:LUMCON:101:1,2017-02-01T20:15:00Z,29.2533,-90.6633,1.0,5.0,172.0,-9999.0,'1111122,1111122,1111122' 
LUMCON,ioos:station:LUMCON:101:1,2017-02-01T20:30:00Z,29.2533,-90.6633,1.0,4.2,158.0,-9999.0,'1111122,1111122,1111122' 
LUMCON,ioos:station:LUMCON:101:1,2017-02-01T20:45:00Z,29.2533,-90.6633,1.0,6.0,165.0,-9999.0,'1111122,1111122,1111122' 
LUMCON,ioos:station:LUMCON:101:1,2017-02-01T21:00:00Z,29.2533,-90.6633,1.0,4.3,156.0,-9999.0,'1111122,1111122,1111122' 
LUMCON,ioos:station:LUMCON:101:1,2017-02-01T21:15:00Z,29.2533,-90.6633,1.0,3.5,165.0,-9999.0,'1111122,1111122,1111122' 
LUMCON,ioos:station:LUMCON:101:1,2017-02-01T21:30:00Z,29.2533,-90.6633,1.0,3.6,167.0,-9999.0,'1111122,1111122,1111122' 
LUMCON,ioos:station:LUMCON:101:1,2017-02-01T21:45:00Z,29.2533,-90.6633,1.0,4.2,174.0,-9999.0,'1111122,1111122,1111122' 
LUMCON,ioos:station:LUMCON:101:1,2017-02-01T22:00:00Z,29.2533,-90.6633,1.0,3.9,173.0,-9999.0,'1111122,1111122,1111122' 
LUMCON,ioos:station:LUMCON:101:1,2017-02-01T22:15:00Z,29.2533,-90.6633,1.0,3.6,172.0,-9999.0,'1111122,1111122,1111122' 
LUMCON,ioos:station:LUMCON:101:1,2017-02-01T22:30:00Z,29.2533,-90.6633,1.0,3.7,143.0,-9999.0,'1111122,1111122,1111122' 
LUMCON,ioos:station:LUMCON:101:1,2017-02-01T22:45:00Z,29.2533,-90.6633,1.0,3.4,152.0,-9999.0,'1111122,1111122,1111122' 
LUMCON,ioos:station:LUMCON:101:1,2017-02-01T23:00:00Z,29.2533,-90.6633,1.0,2.9,151.0,-9999.0,'1111122,1111122,1111122' 
LUMCON,ioos:station:LUMCON:101:1,2017-02-01T23:15:00Z,29.2533,-90.6633,1.0,3.1,145.0,-9999.0,'1111122,1111122,1111122' 
LUMCON,ioos:station:LUMCON:101:1,2017-02-01T23:30:00Z,29.2533,-90.6633,1.0,3.0,162.0,-9999.0,'1111122,1111122,1111122' 
LUMCON,ioos:station:LUMCON:101:1,2017-02-01T23:45:00Z,29.2533,-90.6633,1.0,2.8,135.0,-9999.0,'1111122,1111122,1111122' 
LUMCON,ioos:station:LUMCON:101:1,2017-02-02T00:00:00Z,29.2533,-90.6633,1.0,2.7,149.0,-9999.0,'1111122,1111122,1111122' 
LUMCON,ioos:station:LUMCON:101:1,2017-02-02T00:15:00Z,29.2533,-90.6633,1.0,2.0,150.0,-9999.0,'1111122,1111122,1111122' 
LUMCON,ioos:station:LUMCON:101:1,2017-02-02T00:30:00Z,29.2533,-90.6633,1.0,2.3,140.0,-9999.0,'1111122,1111122,1111122' 
LUMCON,ioos:station:LUMCON:101:1,2017-02-02T00:45:00Z,29.2533,-90.6633,1.0,2.5,147.0,-9999.0,'1111122,1111122,1111122' 
LUMCON,ioos:station:LUMCON:101:1,2017-02-02T01:00:00Z,29.2533,-90.6633,1.0,2.1,144.0,-9999.0,'1111122,1111122,1111122' 
LUMCON,ioos:station:LUMCON:101:1,2017-02-02T01:15:00Z,29.2533,-90.6633,1.0,2.3,156.0,-9999.0,'1111122,1111122,1111122' 
LUMCON,ioos:station:LUMCON:101:1,2017-02-02T01:30:00Z,29.2533,-90.6633,1.0,2.7,150.0,-9999.0,'1111122,1111122,1111122' 
LUMCON,ioos:station:LUMCON:101:1,2017-02-02T01:45:00Z,29.2533,-90.6633,1.0,1.7,146.0,-9999.0,'1111122,1111122,1111122' 
LUMCON,ioos:station:LUMCON:101:1,2017-02-02T02:00:00Z,29.2533,-90.6633,1.0,1.8,141.0,-9999.0,'1111122,1111122,1111122' 
LUMCON,ioos:station:LUMCON:101:1,2017-02-02T02:15:00Z,29.2533,-90.6633,1.0,1.5,141.0,-9999.0,'1111122,1111122,1111122' 
LUMCON,ioos:station:LUMCON:101:1,2017-02-02T02:30:00Z,29.2533,-90.6633,1.0,2.1,133.0,-9999.0,'1111122,1111122,1111122' 
LUMCON,ioos:station:LUMCON:101:1,2017-02-02T02:45:00Z,29.2533,-90.6633,1.0,2.2,129.0,-9999.0,'1111122,1111122,1111122' 
LUMCON,ioos:station:LUMCON:101:1,2017-02-02T03:00:00Z,29.2533,-90.6633,1.0,1.8,138.0,-9999.0,'1111122,1111122,1111122' 
LUMCON,ioos:station:LUMCON:101:1,2017-02-02T03:15:00Z,29.2533,-90.6633,1.0,2.4,129.0,-9999.0,'1111122,1111122,1111122' 
LUMCON,ioos:station:LUMCON:101:1,2017-02-02T03:30:00Z,29.2533,-90.6633,1.0,1.9,133.0,-9999.0,'1111122,1111122,1111122' 
LUMCON,ioos:station:LUMCON:101:1,2017-02-02T03:45:00Z,29.2533,-90.6633,1.0,2.2,123.0,-9999.0,'1111122,1111122,1111122' 
LUMCON,ioos:station:LUMCON:101:1,2017-02-02T04:00:00Z,29.2533,-90.6633,1.0,1.9,134.0,-9999.0,'1111122,1111122,1111122' 
LUMCON,ioos:station:LUMCON:101:1,2017-02-02T04:15:00Z,29.2533,-90.6633,1.0,2.1,126.0,-9999.0,'1111122,1111122,1111122' 
LUMCON,ioos:station:LUMCON:101:1,2017-02-02T04:30:00Z,29.2533,-90.6633,1.0,1.8,119.0,-9999.0,'1111122,1111122,1111122' 
LUMCON,ioos:station:LUMCON:101:1,2017-02-02T04:45:00Z,29.2533,-90.6633,1.0,2.7,131.0,-9999.0,'1111122,1111122,1111122' 
LUMCON,ioos:station:LUMCON:101:1,2017-02-02T05:00:00Z,29.2533,-90.6633,1.0,1.8,120.0,-9999.0,'1111122,1111122,1111122' 
LUMCON,ioos:station:LUMCON:101:1,2017-02-02T05:15:00Z,29.2533,-90.6633,1.0,2.4,131.0,-9999.0,'1111122,1111122,1111122' 
LUMCON,ioos:station:LUMCON:101:1,2017-02-02T05:30:00Z,29.2533,-90.6633,1.0,2.3,129.0,-9999.0,'1111122,1111122,1111122' 
LUMCON,ioos:station:LUMCON:101:1,2017-02-02T05:45:00Z,29.2533,-90.6633,1.0,2.4,139.0,-9999.0,'1111122,1111122,1111122' 
LUMCON,ioos:station:LUMCON:101:1,2017-02-02T06:00:00Z,29.2533,-90.6633,1.0,2.2,140.0,-9999.0,'1111122,1111122,1111122' 
LUMCON,ioos:station:LUMCON:101:1,2017-02-02T06:15:00Z,29.2533,-90.6633,1.0,2.4,123.0,-9999.0,'1111122,1111122,1111122' 
LUMCON,ioos:station:LUMCON:101:1,2017-02-02T06:30:00Z,29.2533,-90.6633,1.0,2.5,138.0,-9999.0,'1111122,1111122,1111122' 
LUMCON,ioos:station:LUMCON:101:1,2017-02-02T06:45:00Z,29.2533,-90.6633,1.0,1.8,121.0,-9999.0,'1111122,1111122,1111122' 
LUMCON,ioos:station:LUMCON:101:1,2017-02-02T07:00:00Z,29.2533,-90.6633,1.0,1.8,85.0,-9999.0,'1111122,1111122,1111122' 
LUMCON,ioos:station:LUMCON:101:1,2017-02-02T07:15:00Z,29.2533,-90.6633,1.0,2.0,119.0,-9999.0,'1111122,1111122,1111122' 
LUMCON,ioos:station:LUMCON:101:1,2017-02-02T07:30:00Z,29.2533,-90.6633,1.0,1.9,119.0,-9999.0,'1111122,1111122,1111122' 
LUMCON,ioos:station:LUMCON:101:1,2017-02-02T07:45:00Z,29.2533,-90.6633,1.0,2.2,120.0,-9999.0,'1111122,1111122,1111122' 
LUMCON,ioos:station:LUMCON:101:1,2017-02-02T08:00:00Z,29.2533,-90.6633,1.0,1.9,106.0,-9999.0,'1111122,1111122,1111122' 
LUMCON,ioos:station:LUMCON:101:1,2017-02-02T08:15:00Z,29.2533,-90.6633,1.0,2.4,112.0,-9999.0,'1111122,1111122,1111122' 
LUMCON,ioos:station:LUMCON:101:1,2017-02-02T08:30:00Z,29.2533,-90.6633,1.0,2.4,108.0,-9999.0,'1111122,1111122,1111122' 
LUMCON,ioos:station:LUMCON:101:1,2017-02-02T08:45:00Z,29.2533,-90.6633,1.0,2.3,112.0,-9999.0,'1111122,1111122,1111122' 
LUMCON,ioos:station:LUMCON:101:1,2017-02-02T09:00:00Z,29.2533,-90.6633,1.0,2.2,112.0,-9999.0,'1111122,1111122,1111122' 
LUMCON,ioos:station:LUMCON:101:1,2017-02-02T09:15:00Z,29.2533,-90.6633,1.0,2.4,111.0,-9999.0,'1111122,1111122,1111122' 
LUMCON,ioos:station:LUMCON:101:1,2017-02-02T09:30:00Z,29.2533,-90.6633,1.0,2.4,116.0,-9999.0,'1111122,1111122,1111122' 
LUMCON,ioos:station:LUMCON:101:1,2017-02-02T09:45:00Z,29.2533,-90.6633,1.0,2.1,106.0,-9999.0,'1111122,1111122,1111122' 
LUMCON,ioos:station:LUMCON:101:1,2017-02-02T10:00:00Z,29.2533,-90.6633,1.0,2.1,98.0,-9999.0,'1111122,1111122,1111122' 
LUMCON,ioos:station:LUMCON:101:1,2017-02-02T10:15:00Z,29.2533,-90.6633,1.0,2.8,94.0,-9999.0,'1111122,1111122,1111122' 
LUMCON,ioos:station:LUMCON:101:1,2017-02-02T10:30:00Z,29.2533,-90.6633,1.0,2.4,93.0,-9999.0,'1111122,1111122,1111122' 
LUMCON,ioos:station:LUMCON:101:1,2017-02-02T10:45:00Z,29.2533,-90.6633,1.0,2.5,95.0,-9999.0,'1111122,1111122,1111122' 
LUMCON,ioos:station:LUMCON:101:1,2017-02-02T11:00:00Z,29.2533,-90.6633,1.0,2.2,90.0,-9999.0,'1111122,1111122,1111122' 
LUMCON,ioos:station:LUMCON:101:1,2017-02-02T11:15:00Z,29.2533,-90.6633,1.0,2.4,89.0,-9999.0,'1111122,1111122,1111122' 
LUMCON,ioos:station:LUMCON:101:1,2017-02-02T11:30:00Z,29.2533,-90.6633,1.0,2.5,85.0,-9999.0,'1111122,1111122,1111122' 
LUMCON,ioos:station:LUMCON:101:1,2017-02-02T11:45:00Z,29.2533,-90.6633,1.0,2.6,84.0,-9999.0,'1111122,1111122,1111122' 
LUMCON,ioos:station:LUMCON:101:1,2017-02-02T12:00:00Z,29.2533,-90.6633,1.0,2.7,83.0,-9999.0,'1111122,1111122,1111122' 
LUMCON,ioos:station:LUMCON:101:1,2017-02-02T12:15:00Z,29.2533,-90.6633,1.0,2.4,88.0,-9999.0,'1111122,1111122,1111122' 
LUMCON,ioos:station:LUMCON:101:1,2017-02-02T12:30:00Z,29.2533,-90.6633,1.0,3.3,96.0,-9999.0,'1111122,1111122,1111122' 
LUMCON,ioos:station:LUMCON:101:1,2017-02-02T12:45:00Z,29.2533,-90.6633,1.0,2.0,99.0,-9999.0,'1111122,1111122,1111122' 
LUMCON,ioos:station:LUMCON:101:1,2017-02-02T13:00:00Z,29.2533,-90.6633,1.0,1.4,112.0,-9999.0,'1111122,1111122,1111122' 
LUMCON,ioos:station:LUMCON:101:1,2017-02-02T13:15:00Z,29.2533,-90.6633,1.0,2.2,87.0,-9999.0,'1111122,1111122,1111122' 
LUMCON,ioos:station:LUMCON:101:1,2017-02-02T13:30:00Z,29.2533,-90.6633,1.0,2.6,98.0,-9999.0,'1111122,1111122,1111122' 
LUMCON,ioos:station:LUMCON:101:1,2017-02-02T13:45:00Z,29.2533,-90.6633,1.0,2.3,111.0,-9999.0,'1111122,1111122,1111122' 
LUMCON,ioos:station:LUMCON:101:1,2017-02-02T14:00:00Z,29.2533,-90.6633,1.0,2.7,100.0,-9999.0,'1111122,1111122,1111122' 
LUMCON,ioos:station:LUMCON:101:1,2017-02-02T14:15:00Z,29.2533,-90.6633,1.0,3.2,117.0,-9999.0,'1111122,1111122,1111122' 
LUMCON,ioos:station:LUMCON:101:1,2017-02-02T14:30:00Z,29.2533,-90.6633,1.0,2.8,125.0,-9999.0,'1111122,1111122,1111122' 
LUMCON,ioos:station:LUMCON:101:1,2017-02-02T14:45:00Z,29.2533,-90.6633,1.0,2.5,122.0,-9999.0,'1111122,1111122,1111122' 
LUMCON,ioos:station:LUMCON:101:1,2017-02-02T15:00:00Z,29.2533,-90.6633,1.0,3.0,115.0,-9999.0,'1111122,1111122,1111122' 
LUMCON,ioos:station:LUMCON:101:1,2017-02-02T15:15:00Z,29.2533,-90.6633,1.0,2.5,116.0,-9999.0,'1111122,1111122,1111122' 
LUMCON,ioos:station:LUMCON:101:1,2017-02-02T15:30:00Z,29.2533,-90.6633,1.0,3.1,126.0,-9999.0,'1111122,1111122,1111122' 
LUMCON,ioos:station:LUMCON:101:1,2017-02-02T15:45:00Z,29.2533,-90.6633,1.0,3.3,124.0,-9999.0,'1111122,1111122,1111122' 
LUMCON,ioos:station:LUMCON:101:1,2017-02-02T16:00:00Z,29.2533,-90.6633,1.0,3.3,123.0,-9999.0,'1111122,1111122,1111122' 
LUMCON,ioos:station:LUMCON:101:1,2017-02-02T16:15:00Z,29.2533,-90.6633,1.0,3.1,128.0,-9999.0,'1111122,1111122,1111122' 
LUMCON,ioos:station:LUMCON:101:1,2017-02-02T16:30:00Z,29.2533,-90.6633,1.0,2.7,130.0,-9999.0,'1111122,1111122,1111122' 
LUMCON,ioos:station:LUMCON:101:1,2017-02-02T16:45:00Z,29.2533,-90.6633,1.0,3.2,85.0,-9999.0,'1111122,1111122,1111122' 
LUMCON,ioos:station:LUMCON:101:1,2017-02-02T17:00:00Z,29.2533,-90.6633,1.0,3.6,113.0,-9999.0,'1111122,1111122,1111122' 
LUMCON,ioos:station:LUMCON:101:1,2017-02-02T17:15:00Z,29.2533,-90.6633,1.0,2.9,125.0,-9999.0,'1111122,1111122,1111122' 
LUMCON,ioos:station:LUMCON:101:1,2017-02-02T17:30:00Z,29.2533,-90.6633,1.0,2.7,123.0,-9999.0,'1111122,1111122,1111122' 
LUMCON,ioos:station:LUMCON:101:1,2017-02-02T17:45:00Z,29.2533,-90.6633,1.0,3.8,124.0,-9999.0,'1111122,1111122,1111122' 
LUMCON,ioos:station:LUMCON:101:1,2017-02-02T18:00:00Z,29.2533,-90.6633,1.0,4.2,108.0,-9999.0,'1111122,1111122,1111122' 
LUMCON,ioos:station:LUMCON:101:1,2017-02-02T18:15:00Z,29.2533,-90.6633,1.0,3.4,121.0,-9999.0,'1111122,1111122,1111122' 
LUMCON,ioos:station:LUMCON:101:1,2017-02-02T18:30:00Z,29.2533,-90.6633,1.0,3.3,124.0,-9999.0,'1111122,1111122,1111122' 
LUMCON,ioos:station:LUMCON:101:1,2017-02-02T18:45:00Z,29.2533,-90.6633,1.0,4.1,124.0,-9999.0,'1111122,1111122,1111122' 
LUMCON,ioos:station:LUMCON:101:1,2017-02-02T19:00:00Z,29.2533,-90.6633,1.0,4.3,119.0,-9999.0,'1111122,1111122,1111122' 
LUMCON,ioos:station:LUMCON:101:1,2017-02-02T19:15:00Z,29.2533,-90.6633,1.0,4.2,122.0,-9999.0,'1111122,1111122,1111122' 
LUMCON,ioos:station:LUMCON:101:1,2017-02-02T19:30:00Z,29.2533,-90.6633,1.0,4.7,127.0,-9999.0,'1111122,1111122,1111122' 
LUMCON,ioos:station:LUMCON:101:1,2017-02-02T19:45:00Z,29.2533,-90.6633,1.0,4.6,131.0,-9999.0,'1111122,1111122,1111122' 
LUMCON,ioos:station:LUMCON:101:1,2017-02-02T20:00:00Z,29.2533,-90.6633,1.0,3.6,130.0,-9999.0,'1111122,1111122,1111122' 
LUMCON,ioos:station:LUMCON:101:1,2017-02-02T20:15:00Z,29.2533,-90.6633,1.0,4.1,135.0,-9999.0,'1111122,1111122,1111122' 
LUMCON,ioos:station:LUMCON:101:1,2017-02-02T20:30:00Z,29.2533,-90.6633,1.0,4.1,124.0,-9999.0,'1111122,1111122,1111122' 
LUMCON,ioos:station:LUMCON:101:1,2017-02-02T20:45:00Z,29.2533,-90.6633,1.0,4.2,133.0,-9999.0,'1111122,1111122,1111122' 
LUMCON,ioos:station:LUMCON:101:1,2017-02-02T21:00:00Z,29.2533,-90.6633,1.0,3.2,137.0,-9999.0,'1111122,1111122,1111122' 
LUMCON,ioos:station:LUMCON:101:1,2017-02-02T21:15:00Z,29.2533,-90.6633,1.0,3.6,115.0,-9999.0,'1111122,1111122,1111122' 
LUMCON,ioos:station:LUMCON:101:1,2017-02-02T21:30:00Z,29.2533,-90.6633,1.0,3.9,135.0,-9999.0,'1111122,1111122,1111122' 
LUMCON,ioos:station:LUMCON:101:1,2017-02-02T21:45:00Z,29.2533,-90.6633,1.0,3.9,128.0,-9999.0,'1111122,1111122,1111122' 
LUMCON,ioos:station:LUMCON:101:1,2017-02-02T22:00:00Z,29.2533,-90.6633,1.0,3.5,127.0,-9999.0,'1111122,1111122,1111122' 
LUMCON,ioos:station:LUMCON:101:1,2017-02-02T22:15:00Z,29.2533,-90.6633,1.0,2.5,156.0,-9999.0,'1111122,1111122,1111122' 
LUMCON,ioos:station:LUMCON:101:1,2017-02-02T22:30:00Z,29.2533,-90.6633,1.0,2.4,143.0,-9999.0,'1111122,1111122,1111122' 
LUMCON,ioos:station:LUMCON:101:1,2017-02-02T22:45:00Z,29.2533,-90.6633,1.0,2.0,144.0,-9999.0,'1111122,1111122,1111122' 
LUMCON,ioos:station:LUMCON:101:1,2017-02-02T23:00:00Z,29.2533,-90.6633,1.0,2.5,132.0,-9999.0,'1111122,1111122,1111122' 
LUMCON,ioos:station:LUMCON:101:1,2017-02-02T23:15:00Z,29.2533,-90.6633,1.0,3.2,124.0,-9999.0,'1111122,1111122,1111122' 
LUMCON,ioos:station:LUMCON:101:1,2017-02-02T23:30:00Z,29.2533,-90.6633,1.0,2.4,137.0,-9999.0,'1111122,1111122,1111122' 
LUMCON,ioos:station:LUMCON:101:1,2017-02-02T23:45:00Z,29.2533,-90.6633,1.0,3.0,128.0,-9999.0,'1111122,1111122,1111122' 
LUMCON,ioos:station:LUMCON:101:1,2017-02-03T00:00:00Z,29.2533,-90.6633,1.0,3.3,121.0,-9999.0,'1111122,1111122,1111122' 
LUMCON,ioos:station:LUMCON:101:1,2017-02-03T00:15:00Z,29.2533,-90.6633,1.0,2.5,129.0,-9999.0,'1111122,1111122,1111122' 
LUMCON,ioos:station:LUMCON:101:1,2017-02-03T00:30:00Z,29.2533,-90.6633,1.0,2.6,127.0,-9999.0,'1111122,1111122,1111122' 
LUMCON,ioos:station:LUMCON:101:1,2017-02-03T00:45:00Z,29.2533,-90.6633,1.0,3.7,128.0,-9999.0,'1111122,1111122,1111122' 
LUMCON,ioos:station:LUMCON:101:1,2017-02-03T01:00:00Z,29.2533,-90.6633,1.0,3.1,131.0,-9999.0,'1111122,1111122,1111122' 
LUMCON,ioos:station:LUMCON:101:1,2017-02-03T01:15:00Z,29.2533,-90.6633,1.0,3.0,125.0,-9999.0,'1111122,1111122,1111122' 
LUMCON,ioos:station:LUMCON:101:1,2017-02-03T01:30:00Z,29.2533,-90.6633,1.0,2.9,133.0,-9999.0,'1111122,1111122,1111122' 